TimeEDT,TemperatureF,Dew PointF,Humidity,Sea Level PressureIn,VisibilityMPH,Wind Direction,Wind SpeedMPH,Gust SpeedMPH,PrecipitationIn,Events,Conditions,WindDirDegrees,DateUTC
12:04 AM,42.8,41.0,93,29.90,4.0,Calm,Calm,-,N/A,,Scattered Clouds,0,2013-04-01 04:04:00
12:10 AM,42.8,41.0,93,29.90,1.8,SSW,3.5,-,N/A,,Mostly Cloudy,200,2013-04-01 04:10:00
12:19 AM,44.6,42.8,93,29.90,0.8,South,5.8,-,N/A,,Mist,190,2013-04-01 04:19:00
12:25 AM,44.6,44.6,100,29.89,1.2,South,5.8,-,N/A,,Scattered Clouds,190,2013-04-01 04:25:00
12:42 AM,44.6,44.6,100,29.89,3.0,SSW,4.6,-,N/A,,Clear,210,2013-04-01 04:42:00
12:53 AM,46.0,45.0,96,29.90,5.0,SSW,4.6,-,N/A,,Clear,210,2013-04-01 04:53:00
1:53 AM,45.0,44.1,97,29.90,4.0,SSW,3.5,-,N/A,,Clear,210,2013-04-01 05:53:00
2:02 AM,44.6,44.6,100,29.90,1.5,Calm,Calm,-,N/A,,Partly Cloudy,0,2013-04-01 06:02:00
2:04 AM,42.8,42.8,100,29.90,0.8,Calm,Calm,-,N/A,,Mist,0,2013-04-01 06:04:00
2:53 AM,41.0,39.9,96,29.90,0.2,Calm,Calm,-,N/A,Fog,Fog,0,2013-04-01 06:53:00
3:49 AM,41.0,39.2,93,29.89,0.2,Calm,Calm,-,N/A,Fog,Fog,0,2013-04-01 07:49:00
3:53 AM,41.0,39.9,96,29.90,0.2,Calm,Calm,-,N/A,Fog,Fog,0,2013-04-01 07:53:00
4:06 AM,42.8,41.0,93,29.89,2.0,SW,4.6,-,N/A,,Overcast,220,2013-04-01 08:06:00
4:13 AM,42.8,42.8,100,29.89,6.0,SW,4.6,-,N/A,,Overcast,230,2013-04-01 08:13:00
4:36 AM,44.6,42.8,93,29.90,6.0,WSW,4.6,-,N/A,,Overcast,240,2013-04-01 08:36:00
4:48 AM,44.6,42.8,93,29.90,7.0,West,3.5,-,N/A,,Overcast,260,2013-04-01 08:48:00
4:53 AM,44.1,44.1,100,29.90,7.0,WSW,3.5,-,N/A,,Overcast,240,2013-04-01 08:53:00
5:02 AM,44.6,44.6,100,29.89,6.0,SW,5.8,-,N/A,,Overcast,230,2013-04-01 09:02:00
5:19 AM,44.6,44.6,100,29.90,2.0,WSW,5.8,-,N/A,,Overcast,240,2013-04-01 09:19:00
5:32 AM,44.6,44.6,100,29.91,1.5,WSW,5.8,-,N/A,,Overcast,250,2013-04-01 09:32:00
5:53 AM,44.1,43.0,96,29.90,1.8,WSW,6.9,-,N/A,,Overcast,240,2013-04-01 09:53:00
6:53 AM,43.0,43.0,100,29.92,1.0,SW,4.6,-,N/A,,Mist,230,2013-04-01 10:53:00
7:29 AM,42.8,42.8,100,29.93,2.0,SW,3.5,-,N/A,,Overcast,220,2013-04-01 11:29:00
7:43 AM,42.8,42.8,100,29.93,1.5,SW,3.5,-,N/A,,Overcast,220,2013-04-01 11:43:00
7:53 AM,43.0,43.0,100,29.94,2.0,SW,4.6,-,N/A,,Overcast,230,2013-04-01 11:53:00
8:06 AM,42.8,42.8,100,29.95,4.0,SW,4.6,-,N/A,,Overcast,230,2013-04-01 12:06:00
8:53 AM,45.0,44.1,97,29.96,6.0,WSW,5.8,-,N/A,,Overcast,240,2013-04-01 12:53:00
9:49 AM,46.4,44.6,93,29.98,8.0,WNW,8.1,-,N/A,,Overcast,300,2013-04-01 13:49:00
9:53 AM,48.0,45.0,89,29.99,8.0,WNW,8.1,-,N/A,,Overcast,300,2013-04-01 13:53:00
10:03 AM,48.2,44.6,87,29.99,10.0,WNW,6.9,-,N/A,,Overcast,300,2013-04-01 14:03:00
10:34 AM,48.2,41.0,76,30.00,10.0,NNW,12.7,-,N/A,,Overcast,330,2013-04-01 14:34:00
10:53 AM,50.0,42.1,74,30.00,10.0,NW,6.9,-,N/A,,Overcast,310,2013-04-01 14:53:00
11:11 AM,48.2,41.0,76,30.01,10.0,NW,8.1,-,N/A,,Overcast,310,2013-04-01 15:11:00
11:35 AM,50.0,41.0,71,30.01,10.0,NW,6.9,-,N/A,,Overcast,320,2013-04-01 15:35:00
11:53 AM,50.0,39.9,68,30.03,10.0,North,9.2,-,N/A,,Overcast,360,2013-04-01 15:53:00
12:53 PM,51.1,37.0,59,30.03,10.0,NW,5.8,17.3,N/A,,Overcast,310,2013-04-01 16:53:00
1:53 PM,52.0,33.1,49,30.03,10.0,WNW,12.7,-,N/A,,Overcast,290,2013-04-01 17:53:00
2:53 PM,54.0,35.1,49,30.01,10.0,NW,12.7,18.4,N/A,,Partly Cloudy,310,2013-04-01 18:53:00
3:53 PM,53.1,32.0,45,30.00,10.0,WNW,11.5,-,N/A,,Scattered Clouds,300,2013-04-01 19:53:00
4:53 PM,54.0,34.0,47,29.99,10.0,West,12.7,19.6,N/A,,Overcast,280,2013-04-01 20:53:00
5:53 PM,53.1,32.0,45,29.99,10.0,NW,11.5,-,N/A,,Mostly Cloudy,320,2013-04-01 21:53:00
6:53 PM,51.1,32.0,48,30.02,10.0,NW,6.9,-,N/A,,Partly Cloudy,320,2013-04-01 22:53:00
7:53 PM,48.0,30.9,52,30.04,10.0,North,5.8,-,N/A,,Scattered Clouds,350,2013-04-01 23:53:00
8:53 PM,45.0,28.9,53,30.06,10.0,North,5.8,-,N/A,,Mostly Cloudy,350,2013-04-02 00:53:00
9:53 PM,43.0,28.0,56,30.09,10.0,NW,3.5,-,N/A,,Clear,320,2013-04-02 01:53:00
10:53 PM,42.1,27.0,55,30.11,10.0,Calm,Calm,-,N/A,,Clear,0,2013-04-02 02:53:00
11:53 PM,39.9,24.1,53,30.11,10.0,NW,4.6,-,N/A,,Clear,310,2013-04-02 03:53:00